Hourly Data Report for June 15, 2021

CARIBOU POINT (AUT)
NOVA SCOTIA
Current Station Operator: ECCC - MSC

45°46'00.000" N
62°41'00.000" W
2.40 m
8200774
71415
WBK

Download Data

Hourly Data (June 2021)
Hourly Data Report for June 15, 2021
TIME
LST
Temp Definition
°C
Dew Point Definition
°C
Rel Hum Definition
%
Precip. Amount Definition
mm

Wind Dir Definition
10's deg

Wind Spd Definition
km/h
Visibility Definition
km
Stn Press Definition
kPa
Hmdx Definition


Wind Chill Definition


Weather Definition


00:00 12.9 10.8 87 0.0 18 27   101.76     LegendNANA
01:00 12.9 10.5 85 0.0 17 9   101.73     LegendNANA
02:00 14.1 10.8 81 0.0 17 18   101.68     LegendNANA
03:00 13.8 10.9 83 0.0 16 21   101.62     LegendNANA
04:00 14.4 12.1 86 0.0 17 25   101.56     LegendNANA
05:00 14.0 12.9 93 0.0 15 19   101.50     LegendNANA
06:00 15.1 13.3 89 0.0 16 16   101.49     LegendNANA
07:00 16.3 13.7 85 0.0 18 40   101.42     LegendNANA
08:00 17.4 14.0 81 0.0 18 31   101.41     LegendNANA
09:00 18.4 14.1 76 0.0 17 43   101.37     LegendNANA
10:00 18.5 13.8 74 0.0 18 34   101.35     LegendNANA
11:00 19.2 14.1 72 0.0 17 35   101.29     LegendNANA
12:00 19.7 14.4 72 0.0 17 39   101.24     LegendNANA
13:00 19.4 14.3 72 0.0 17 35   101.17     LegendNANA
14:00 19.9 14.4 71 0.0 17 35   101.07     LegendNANA
15:00 19.9 15.0 73 0.0 17 31   101.03     LegendNANA
16:00 19.0 15.0 78 0.0 17 44   101.02     LegendNANA
17:00 17.1 14.9 87 1.7 15 27   101.00     LegendNANA
18:00 17.0 15.2 89 2.0 14 28   100.95     LegendNANA
19:00 17.3 14.8 85 0.0 16 34   100.88     LegendNANA
20:00 15.9 14.9 94 2.1 17 26   100.90     LegendNANA
21:00 15.4 14.0 92 0.2 17 34   100.86     LegendNANA
22:00 14.7 13.5 93 0.7 17 35   100.77     LegendNANA
23:00 14.5 13.0 91 0.0 16 38   100.69     LegendNANA

Notes on Data Quality.

Legend

  • E = Estimated
  • M = Missing
  • NA = Not Available*
  • [empty] = Indicates an unobserved value
Date modified: